Temperature
23 24 25 25 25 25 24 22 21 21 21 21 20 20 21 21 21 21 21 21 21 20 20 19 19 19 18 18 18 18 18 17 17 17 16 16 16 16 15 15 15 15 15 15
23 24 24 24 25 25 24 24 22 21 21 20 21 21 21 21 21 21 21 21 20 20 20 19 19 18 18 18 18 17 17 17 17 16 16 16 16 16 15 15 15 15 15 15
21 22 23 22 23 24 23 23 22 21 20 20 19 20 20 20 20 20 20 20 20 20 20 19 19 18 18 17 17 17 17 17 16 16 16 16 16 15 15 15 15 15 15 15
19 21 22 22 23 23 23 22 22 21 20 20 20 21 21 21 21 20 20 20 20 20 19 19 18 18 18 17 17 17 16 16 16 16 16 15 15 15 15 15 15 15 15 15
18 20 20 22 23 23 22 21 21 21 21 21 21 20 20 21 21 21 20 20 20 19 19 19 18 18 17 17 17 16 16 16 16 16 15 15 15 15 15 15 15 15 15 14
18 20 20 21 22 23 22 20 21 20 20 20 20 18 18 20 21 20 20 20 20 19 19 18 18 17 17 17 16 16 16 16 15 15 15 15 15 15 15 14 15 14 14 14
18 18 19 20 22 23 21 19 21 21 21 20 19 19 20 20 20 20 20 20 19 19 18 18 17 17 17 16 16 16 16 15 15 15 15 15 15 14 14 14 14 14 14 14
17 18 18 20 21 20 19 21 21 21 21 21 20 20 20 20 20 20 19 19 19 18 18 17 17 17 16 16 16 15 15 15 15 15 15 15 14 14 14 14 14 14 14 14
16 17 18 20 20 21 21 21 21 21 21 21 20 20 20 20 20 19 19 19 18 18 17 17 17 16 16 16 15 15 15 15 15 15 14 14 14 14 14 14 14 14 13 13
16 17 18 20 20 21 21 21 21 21 21 20 20 20 19 19 19 19 18 18 17 17 17 16 16 16 16 15 15 15 15 14 14 14 14 14 14 14 14 14 14 13 13 13
16 17 18 19 19 20 20 20 20 20 20 20 20 19 19 19 19 18 18 17 17 17 16 16 15 15 15 15 14 14 14 14 14 14 14 14 14 14 14 14 14 13 13 13
15 16 16 18 19 19 19 19 19 19 19 19 20 19 19 18 18 18 17 17 16 16 16 15 15 15 14 14 14 14 14 14 14 14 14 14 13 13 13 13 13 13 13 13
18 19 19 19 19 19 19 19 19 19 19 18 19 19 18 18 18 17 17 16 16 16 16 15 15 14 14 14 14 14 14 14 13 13 13 13 13 13 13 13 13 13 13 13
18 18 18 19 19 19 18 18 18 18 18 18 18 18 18 17 17 17 16 16 16 15 15 15 14 14 14 14 14 14 14 14 13 13 13 13 13 13 13 13 13 13 13 13
18 18 18 18 18 18 18 18 18 17 17 17 17 17 17 17 16 16 16 15 15 15 15 14 14 14 14 14 14 14 13 13 13 13 13 13 13 13 13 13 13 13 13 13
17 17 17 17 17 17 17 17 17 16 16 16 16 16 16 16 16 16 15 15 15 14 14 14 14 14 14 14 13 13 13 13 13 13 13 13 13 13 13 13 13 13 13 13
17 16 16 16 16 16 16 16 16 16 16 16 16 15 15 15 15 15 15 14 14 14 14 14 13 13 13 13 13 13 13 13 13 13 13 13 13 13 12 12 12 13 13 12
16 16 16 16 16 16 16 16 16 15 15 15 15 15 15 15 14 14 14 14 13 13 13 13 13 13 13 13 13 13 13 12 12 12 13 13 13 12 12 12 12 12 12 12
16 16 16 15 15 15 15 15 15 15 15 15 15 14 14 14 14 14 13 13 13 13 13 13 12 12 12 12 13 12 12 12 12 12 12 12 12 12 12 12 12 12 12 12
15 15 15 15 15 15 15 15 15 14 14 14 14 14 14 14 14 13 13 13 13 13 12 12 12 12 12 12 12 12 12 12 12 12 12 12 12 12 12 12 12 12 12 12
15 15 15 14 14 14 14 14 14 14 14 14 14 14 14 13 13 13 13 13 13 13 12 12 12 12 12 12 12 12 12 12 12 12 12 12 12 12 12 11 12 12 12 11
14 14 14 14 14 13 13 13 13 13 13 13 13 13 13 13 13 13 13 13 13 12 12 12 12 12 12 12 12 12 12 12 12 12 12 12 12 12 12 11 11 11 11 11
13 13 13 13 13 13 13 13 13 13 13 13 13 13 13 13 13 12 12 13 12 12 12 12 12 12 12 12 12 12 12 12 12 12 12 12 12 11 11 11 11 11 11 11
13 13 13 13 13 13 12 13 13 13 13 13 13 13 13 12 12 12 12 12 12 12 12 12 12 12 12 12 12 12 12 12 12 12 12 11 11 11 11 11 11 11 11 11
12 12 12 12 12 12 12 12 12 12 12 12 12 12 12 12 12 12 12 12 12 12 12 12 12 12 12 11 11 11 11 11 11 11 11 11 11 11 11 11 11 10 10 10
12 12 12 12 12 12 12 12 12 12 12 12 12 12 12 12 12 12 12 12 12 12 12 12 12 11 11 11 11 11 11 11 11 11 11 11 11 11 10 10 10 10 10 10
12 12 12 12 12 12 12 11 12 12 12 12 12 12 12 12 12 12 12 12 12 12 12 11 11 11 11 11 11 11 11 10 10 10 10 10 10 10 10 10 10 10 10 10
Wind_Speed
5 5 2 2 3 1 2 5 6 7 7 8 8 7 6 5 5 7 7 6 6 6 6 6 5 5 5 6 6 6 5 5 5 4 4 3 3 3 2 2 3 3 2 2
3 3 2 3 4 1 1 2 4 4 3 4 4 5 5 5 6 7 7 7 7 6 6 5 5 5 4 4 4 5 5 5 4 3 3 4 3 3 2 3 3 2 3 3
3 4 3 3 3 1 1 1 5 4 4 5 5 7 7 7 7 8 7 6 6 6 6 6 6 6 5 4 4 5 5 5 4 4 4 4 4 3 3 3 3 3 3 3
1 2 2 6 3 4 4 3 2 3 5 7 8 8 7 7 8 7 7 7 7 6 5 4 5 5 5 4 4 4 4 4 4 4 4 4 4 4 4 3 3 4 4 4
3 2 3 5 4 1 4 1 1 5 5 5 5 4 1 3 6 8 8 8 7 7 6 4 4 4 4 4 4 4 4 4 5 5 4 4 5 5 4 4 4 3 3 4
3 3 5 6 6 1 6 0 3 4 6 6 6 3 4 4 3 4 5 5 6 5 5 5 4 4 5 4 3 4 4 5 5 5 5 5 5 5 3 3 4 3 3 4
3 3 5 6 5 3 3 6 4 4 6 6 5 6 6 4 4 4 5 5 6 6 5 5 5 5 5 4 4 5 4 4 4 4 5 4 3 3 3 3 2 2 3 3
3 3 6 5 2 2 5 3 2 3 5 5 4 4 4 4 5 5 5 5 5 6 5 4 5 5 5 5 5 4 3 3 3 3 4 3 2 2 2 3 3 2 2 3
5 6 5 2 2 2 2 2 1 2 4 6 5 4 4 4 5 5 6 6 5 6 5 5 5 6 5 5 4 3 2 2 2 2 2 2 3 2 2 2 3 3 3 3
1 2 2 2 3 3 2 1 1 3 5 6 5 4 4 4 5 5 5 5 4 5 4 4 4 5 5 5 3 3 3 2 2 2 2 1 1 2 3 3 3 3 3 3
0 2 2 3 2 2 3 2 3 2 3 5 6 4 4 4 5 5 5 5 5 5 5 4 4 4 5 5 4 3 3 3 2 3 3 2 2 3 4 4 5 5 4 4
5 6 3 4 3 1 2 1 1 1 1 2 5 5 3 4 4 5 5 5 5 5 4 3 3 3 4 4 4 4 3 3 2 2 2 2 2 2 3 4 5 6 7 7
5 3 3 3 1 0 1 1 1 1 2 1 1 2 3 4 4 4 5 5 6 6 6 5 3 3 4 4 4 5 5 4 3 3 3 3 3 3 3 3 3 4 6 8
2 1 1 1 1 1 1 1 1 1 1 1 1 1 2 2 3 4 5 6 5 5 4 4 4 4 5 4 4 5 5 5 5 4 4 4 4 4 4 3 3 3 4 6
1 2 3 1 1 1 1 2 2 2 1 1 1 0 1 2 3 4 4 4 4 4 4 4 4 5 4 4 4 5 4 4 4 4 4 4 4 4 3 4 3 3 3 3
1 0 1 1 0 0 1 2 2 0 1 1 1 0 1 2 2 1 2 3 3 3 3 4 5 5 4 4 4 4 4 6 5 4 3 3 3 3 3 3 3 3 4 4
2 1 0 0 0 1 1 2 2 2 1 1 1 1 1 2 1 1 1 1 2 2 3 3 4 4 4 4 4 3 3 3 5 3 3 3 3 3 3 3 3 3 4 5
3 3 3 2 2 1 1 1 2 2 2 1 1 1 2 3 3 3 3 2 1 1 2 3 4 3 3 3 3 3 3 2 2 3 3 3 3 3 3 3 3 3 3 4
2 3 2 2 1 1 1 2 1 1 0 1 1 2 2 3 4 4 3 2 3 3 4 4 4 3 3 4 3 3 3 3 2 2 2 3 3 2 2 2 2 2 2 2
2 3 4 4 3 2 1 0 1 0 0 0 1 0 1 2 2 2 2 2 4 4 4 4 3 3 3 3 3 2 3 3 3 2 2 2 3 3 2 3 2 2 2 2
4 3 4 3 2 2 1 1 1 1 0 1 1 1 2 2 1 2 2 3 5 4 3 4 3 2 2 2 3 2 2 3 3 3 3 3 3 3 2 3 2 2 2 1
3 3 3 2 2 1 2 1 1 1 1 0 0 0 0 1 1 2 3 4 4 4 2 2 2 3 2 2 1 2 2 2 2 2 2 3 3 3 3 3 3 2 2 2
2 2 2 1 1 0 1 1 1 0 0 1 1 2 2 3 2 2 3 3 2 2 2 1 2 3 3 1 1 1 1 2 2 2 2 2 3 3 3 2 2 2 2 2
1 1 1 1 2 2 1 2 1 1 1 1 2 2 2 1 2 2 2 2 2 2 1 1 2 2 1 0 0 0 0 1 1 1 1 2 2 2 2 2 2 2 2 2
1 1 2 2 2 0 1 1 2 2 2 1 2 2 1 1 1 2 1 1 2 2 1 1 1 1 1 1 1 0 0 0 0 1 1 1 2 2 2 2 3 3 2 2
1 1 0 1 1 1 0 1 1 1 1 2 2 2 2 1 1 0 0 0 1 1 1 0 0 1 1 1 0 0 0 0 0 1 1 1 2 2 2 2 3 2 2 2
2 2 1 2 2 1 1 1 1 1 1 1 1 2 2 2 1 1 1 1 1 0 0 0 1 1 1 1 1 1 0 0 0 0 1 1 1 1 2 2 2 2 2 2
Wind_Direction
222 237 249 279 297 261 169 185 184 206 191 205 190 173 172 161 149 147 151 154 157 160 165 168 167 168 174 178 175 168 165 177 196 205 204 203 205 213 213 222 238 231 216 224
317 305 344 352 341 23 57 110 133 134 215 218 168 135 136 144 140 145 157 161 160 167 164 165 164 164 164 168 173 166 171 188 194 195 204 207 206 209 213 231 235 229 224 221
276 291 16 325 285 136 102 102 143 172 207 158 142 158 170 167 160 163 169 170 171 172 170 170 166 161 163 168 164 165 178 186 187 190 205 213 210 210 224 231 227 233 238 221
193 25 231 247 247 139 114 72 107 139 155 160 168 172 172 171 171 177 176 176 181 177 169 168 168 163 161 151 151 163 179 190 190 189 209 223 217 221 227 227 222 229 238 234
134 184 264 298 309 164 140 23 44 131 143 146 137 109 175 200 175 182 184 179 177 177 169 159 165 165 146 145 153 162 182 196 200 198 210 223 225 227 226 222 231 231 231 229
138 160 217 251 287 219 110 9 295 134 147 146 124 135 238 221 176 171 174 166 164 162 150 154 162 156 146 162 169 191 204 207 207 204 211 220 228 225 220 220 230 235 246 242
164 192 245 265 289 65 128 231 242 174 159 154 168 196 210 188 171 169 168 161 154 151 161 176 173 158 159 174 199 214 213 211 213 215 216 215 217 212 203 202 213 247 264 266
151 178 248 292 33 141 217 221 174 161 158 153 159 163 169 162 162 160 152 150 155 158 173 185 179 170 179 203 215 210 204 209 222 224 224 218 199 214 197 186 195 242 268 284
178 203 237 268 189 206 155 128 145 152 159 145 137 156 173 177 169 170 168 166 167 168 172 188 187 178 194 222 210 197 202 220 233 228 229 210 195 202 208 204 204 222 220 249
88 263 281 1 26 34 39 138 149 155 157 149 157 167 179 183 177 174 174 170 167 162 173 201 205 195 209 216 201 189 204 220 213 201 225 225 210 204 212 212 208 215 218 231
231 275 10 1 353 354 8 42 88 93 136 150 150 167 182 191 190 189 182 178 174 176 187 205 209 209 209 208 191 191 206 219 213 204 204 220 230 228 226 228 212 208 219 217
222 231 195 237 253 281 66 57 107 93 75 153 159 177 190 189 190 190 185 182 178 181 187 203 210 228 230 212 196 195 209 217 216 213 212 212 228 273 269 245 245 230 221 220
211 223 194 216 250 275 127 129 149 150 182 193 188 180 184 192 191 182 187 189 189 194 192 186 193 232 241 224 208 202 209 214 211 210 209 205 211 220 262 302 285 249 244 239
221 106 11 306 251 284 282 181 142 117 144 169 175 177 183 205 192 187 198 202 194 187 184 180 186 219 236 225 222 222 217 215 209 208 208 208 214 216 214 224 261 287 277 257
244 180 199 235 345 2 19 68 77 59 57 53 87 124 206 210 206 209 199 178 168 173 186 190 205 227 232 219 225 226 219 215 213 210 209 209 212 213 219 225 230 248 275 286
206 86 84 85 240 348 56 89 111 149 162 124 102 182 214 209 197 187 173 162 164 187 208 209 224 237 232 212 218 227 231 230 219 212 213 217 214 207 215 218 227 234 239 242
123 123 50 21 37 137 153 174 166 161 143 125 178 166 130 116 109 125 182 183 172 193 207 214 235 241 230 215 209 221 225 230 228 219 210 207 201 205 213 216 223 232 237 229
168 187 180 176 184 171 170 156 152 167 187 193 157 156 165 166 188 206 209 194 180 230 239 232 241 250 238 228 214 208 208 214 216 215 213 198 194 199 201 214 229 241 250 237
105 98 83 59 74 128 171 188 186 200 221 157 143 181 206 205 201 205 198 186 201 235 253 249 246 244 243 235 219 210 211 215 210 211 208 198 199 204 200 217 236 248 246 233
96 98 86 65 43 41 18 36 105 111 262 125 136 182 231 233 218 197 188 213 234 236 238 243 241 239 240 238 228 215 213 210 205 209 203 205 209 209 210 223 233 236 228 215
89 88 88 81 44 13 1 20 95 92 29 79 136 211 240 256 247 204 198 245 265 246 229 223 219 235 240 236 222 211 207 206 208 210 203 202 205 202 209 225 220 214 209 203
88 91 88 89 82 9 346 359 54 104 100 37 353 151 250 275 268 260 243 237 244 229 218 221 240 243 253 245 207 209 224 220 217 219 207 204 203 200 202 199 194 202 195 202
59 81 94 113 129 60 22 22 18 63 137 203 205 210 221 236 238 235 266 268 235 200 194 225 244 237 239 232 224 221 223 210 214 220 208 196 192 188 186 193 202 193 180 188
60 38 62 100 93 70 29 321 331 319 260 240 225 226 217 235 296 274 252 238 203 180 213 253 238 226 196 120 92 118 126 174 207 205 173 176 180 177 179 177 173 172 173 171
83 71 69 69 71 74 281 329 1 356 352 322 308 301 277 234 243 268 260 222 202 184 238 269 221 213 159 115 144 164 264 267 205 165 162 185 191 185 182 175 168 171 172 170
46 54 81 141 148 142 83 45 22 350 5 6 344 332 321 319 318 344 108 210 180 193 199 177 143 144 134 135 132 102 37 318 165 162 176 186 179 166 167 158 149 154 162 165
1 6 30 35 38 68 85 73 61 16 357 341 325 333 354 14 28 32 21 10 28 176 208 169 119 127 130 126 126 110 75 43 93 193 192 159 154 154 153 143 142 144 143 134
Height
1478 1474 1472 1473 1471 1470 1476 1482 1491 1491 1489 1485 1481 1481 1482 1483 1484 1485 1487 1489 1490 1492 1494 1495 1496 1496 1496 1497 1498 1499 1500 1500 1500 1501 1501 1501 1500 1500 1499 1499 1499 1499 1498 1498
1478 1471 1470 1473 1470 1470 1471 1473 1479 1482 1485 1477 1477 1478 1480 1481 1483 1484 1485 1486 1488 1490 1491 1492 1493 1494 1494 1495 1495 1496 1497 1497 1498 1498 1498 1498 1498 1498 1497 1497 1496 1496 1496 1496
1488 1477 1475 1485 1474 1472 1474 1472 1475 1483 1480 1475 1478 1478 1479 1480 1481 1483 1485 1485 1486 1487 1488 1489 1490 1491 1492 1493 1493 1494 1495 1495 1495 1495 1495 1496 1495 1495 1495 1495 1494 1494 1493 1493
1490 1487 1496 1483 1466 1466 1470 1471 1470 1472 1472 1473 1474 1475 1477 1478 1480 1481 1483 1483 1484 1485 1486 1487 1488 1489 1490 1490 1490 1491 1492 1492 1492 1493 1493 1493 1493 1492 1492 1492 1492 1491 1491 1490
1494 1496 1491 1477 1466 1466 1471 1476 1470 1470 1471 1472 1473 1475 1477 1478 1478 1479 1480 1481 1482 1483 1484 1484 1485 1486 1487 1487 1488 1488 1488 1489 1489 1490 1490 1490 1489 1489 1489 1489 1489 1488 1488 1487
1491 1494 1496 1481 1465 1461 1466 1479 1470 1468 1469 1470 1472 1479 1478 1476 1476 1477 1477 1478 1479 1480 1481 1482 1483 1484 1484 1484 1484 1484 1485 1486 1486 1487 1487 1486 1486 1486 1486 1486 1485 1485 1484 1483
1489 1492 1486 1470 1462 1461 1480 1480 1468 1467 1466 1468 1469 1471 1472 1472 1473 1474 1475 1476 1477 1478 1478 1479 1481 1481 1481 1481 1481 1482 1482 1482 1483 1483 1483 1483 1483 1483 1482 1482 1481 1481 1480 1480
1488 1492 1488 1465 1463 1469 1471 1465 1465 1465 1465 1466 1467 1467 1468 1469 1470 1471 1472 1473 1474 1474 1475 1477 1478 1478 1478 1478 1478 1479 1479 1479 1479 1480 1480 1480 1480 1479 1479 1478 1478 1477 1477 1476
1478 1479 1469 1464 1464 1464 1464 1463 1464 1464 1463 1464 1465 1465 1466 1466 1467 1468 1469 1469 1470 1471 1472 1473 1474 1475 1474 1474 1475 1475 1475 1475 1476 1476 1476 1477 1476 1476 1475 1475 1474 1474 1473 1473
1472 1469 1465 1464 1463 1462 1462 1462 1462 1462 1462 1462 1463 1463 1463 1463 1464 1465 1466 1466 1467 1468 1468 1469 1469 1470 1470 1470 1472 1472 1472 1472 1472 1473 1473 1473 1473 1472 1471 1470 1470 1470 1469 1468
1470 1466 1464 1463 1462 1462 1461 1461 1460 1460 1460 1460 1460 1460 1461 1461 1461 1462 1462 1463 1464 1465 1465 1465 1466 1466 1467 1467 1468 1468 1468 1469 1469 1469 1469 1469 1469 1469 1468 1467 1467 1467 1466 1466
1469 1464 1463 1462 1461 1460 1460 1459 1459 1459 1459 1459 1458 1458 1458 1458 1458 1459 1459 1460 1460 1461 1461 1461 1462 1462 1463 1464 1464 1465 1465 1465 1465 1466 1466 1466 1466 1465 1465 1465 1464 1464 1463 1464
1460 1460 1459 1459 1459 1459 1458 1458 1458 1458 1458 1457 1457 1456 1456 1456 1456 1456 1456 1456 1456 1457 1457 1458 1458 1459 1460 1460 1461 1461 1461 1461 1462 1462 1462 1463 1463 1462 1461 1461 1461 1461 1461 1461
1458 1458 1458 1457 1457 1457 1456 1456 1456 1455 1455 1455 1455 1454 1454 1454 1453 1453 1453 1453 1453 1454 1454 1454 1455 1455 1456 1456 1457 1457 1458 1458 1458 1458 1459 1459 1459 1459 1459 1458 1457 1457 1458 1457
1456 1456 1455 1455 1455 1455 1454 1454 1454 1453 1453 1453 1452 1452 1451 1451 1450 1450 1450 1450 1451 1451 1451 1451 1452 1452 1453 1453 1453 1453 1454 1454 1454 1454 1455 1455 1456 1456 1456 1455 1455 1454 1455 1454
1453 1453 1453 1453 1453 1452 1452 1452 1451 1451 1450 1450 1450 1450 1449 1449 1448 1447 1447 1448 1448 1447 1447 1448 1448 1448 1449 1449 1449 1450 1450 1450 1451 1451 1451 1451 1452 1452 1452 1452 1452 1452 1451 1451
1451 1451 1451 1450 1450 1450 1450 1450 1449 1449 1448 1448 1447 1447 1447 1447 1446 1446 1446 1445 1445 1445 1445 1445 1445 1445 1445 1445 1445 1445 1446 1446 1447 1447 1447 1447 1448 1448 1449 1449 1448 1448 1448 1448
1449 1449 1449 1448 1448 1448 1447 1447 1447 1446 1446 1445 1445 1445 1444 1444 1444 1444 1444 1444 1443 1443 1443 1442 1442 1442 1441 1441 1442 1442 1443 1443 1444 1444 1444 1444 1444 1444 1445 1445 1445 1445 1444 1444
1446 1446 1446 1446 1446 1446 1445 1445 1445 1445 1444 1444 1442 1442 1442 1442 1442 1441 1441 1441 1440 1439 1439 1439 1439 1438 1438 1438 1438 1439 1439 1440 1440 1440 1441 1441 1441 1441 1441 1442 1442 1441 1441 1441
1443 1443 1443 1444 1444 1444 1444 1443 1443 1443 1442 1442 1441 1441 1440 1440 1439 1439 1438 1438 1437 1437 1437 1436 1436 1435 1435 1435 1436 1436 1436 1437 1437 1438 1438 1438 1438 1438 1438 1438 1438 1439 1439 1438
1441 1441 1442 1442 1443 1443 1442 1442 1441 1441 1441 1441 1440 1439 1439 1438 1438 1437 1436 1435 1435 1435 1434 1434 1433 1433 1433 1433 1433 1433 1433 1434 1434 1435 1435 1435 1435 1435 1435 1436 1436 1436 1436 1436
1440 1440 1440 1441 1441 1441 1441 1441 1440 1440 1439 1439 1439 1438 1437 1436 1436 1435 1434 1434 1433 1433 1432 1432 1431 1431 1431 1431 1431 1431 1431 1432 1432 1432 1432 1432 1433 1432 1432 1433 1433 1433 1433 1433
1440 1440 1440 1440 1440 1441 1441 1440 1440 1439 1438 1438 1437 1436 1435 1435 1434 1433 1432 1433 1432 1431 1431 1430 1430 1430 1429 1429 1429 1429 1429 1430 1430 1430 1430 1430 1430 1430 1431 1431 1431 1431 1431 1431
1441 1440 1440 1439 1440 1440 1439 1439 1439 1438 1438 1437 1437 1436 1435 1434 1433 1432 1432 1432 1431 1431 1430 1430 1429 1429 1428 1428 1427 1427 1427 1428 1428 1428 1428 1428 1428 1428 1429 1429 1429 1429 1429 1430
1441 1440 1439 1439 1439 1439 1439 1438 1438 1438 1437 1436 1436 1435 1435 1434 1433 1432 1431 1431 1431 1430 1429 1429 1428 1428 1427 1426 1426 1426 1426 1426 1426 1426 1426 1426 1426 1427 1427 1427 1427 1427 1427 1427
1440 1439 1439 1439 1438 1438 1438 1438 1437 1437 1436 1435 1435 1434 1434 1433 1432 1431 1431 1430 1430 1429 1429 1428 1427 1427 1426 1425 1425 1425 1424 1424 1424 1424 1424 1424 1424 1424 1425 1425 1425 1425 1425 1425
1440 1439 1439 1438 1438 1438 1438 1438 1437 1436 1435 1435 1434 1433 1433 1432 1431 1430 1430 1429 1429 1428 1427 1427 1426 1426 1425 1425 1424 1424 1423 1423 1422 1422 1422 1422 1422 1422 1422 1422 1423 1423 1423 1423